Hauptseite
METAR-TAF:

METAR-TAF

Flughäfen :

Militärflugplatz Payerne

Payerne, Schweiz

Breite: 46-49N, Länge: 006-57E, Höhe: 490 m

Beobachtung

Neuester Wetterbericht von vor 20 Minuten, um 02:50 UTC
Windstille
Temperatur 7°C
Luftfeuchtigkeit 87%
Luftdruck 1018 hPa
Sichtweite: 9000 m

METAR: LSMP 160250Z AUTO 00000KT 9000NDV NCD 07/05 Q1018 RMK

Zeit: 05:10 (03:10 UTC)


TAF: fehlend

Wetterbeobachtungen und Prognosen von mehr als 4000 Flughäfen (METAR und TAF Bericht).

Die verfügbaren Stationen werden durch gelbe und rote Markierungen auf der Karte dargestellt.

Führen Sie die Maus auf sie, um den Namen der Station zu sehen.

Darauf klicken, um die Beobachtung von Wetterbeobachtungen und Prognosen zu sehen.

Um die Karte zu ändern : klicken Sie auf den grünen Tasten mit einem schwarzen Kreuz Zum Vergrößern, auf den grünen Button mit einem Gedankenstrich zu verkleinern, oder auf die grünen Pfeile für benachbarte Karten.


METAR-TAF: